T 2002 June 16.4290 TT MPC q 3.230373 (2000.0) P Q Peri. 4.4548 +0.1828867 -0.0095205 Node 280.5488 -0.9300846 -0.3257087 e 1.0 Incl. 89.7253 -0.3185830 +0.9454222 From 55 observations 2002 May 16-Aug. 12.
m1 = 11.0 + 5 logΔ + 10.0 log r